| time (UTC) | temp C | wind direction | speed KPH | gust KPH | rain 1hr cm | rain 24hr cm | rain mn cm | humidity % | barometer mb |
| 20260506110013 | 23 | 187 | 0.0 | 0.0 | 0.00 | 0.00 | 0.00 | 100 | 1009.7 |
| 20260506104519 | 23 | 187 | 0.0 | 0.0 | 0.00 | 0.00 | 0.00 | 100 | 1009.6 |
| 20260506103032 | 23 | 187 | 0.0 | 4.8 | 0.00 | 0.00 | 0.00 | 100 | 1009.4 |
| 20260506101508 | 23 | 187 | 0.0 | 1.6 | 0.00 | 0.00 | 0.00 | 100 | 1009.3 |
| 20260506100012 | 23 | 187 | 0.0 | 6.4 | 0.00 | 0.00 | 0.00 | 100 | 1009.3 |
| 20260506094518 | 23 | 188 | 0.0 | 3.2 | 0.00 | 0.00 | 0.00 | 100 | 1009.1 |
| 20260506093023 | 23 | 189 | 0.0 | 6.4 | 0.00 | 0.00 | 0.00 | 100 | 1009.1 |
| 20260506091528 | 24 | 191 | 0.0 | 6.4 | 0.00 | 0.00 | 0.00 | 100 | 1009.0 |
| 20260506090009 | 24 | 185 | 0.0 | 4.8 | 0.00 | 0.00 | 0.00 | 100 | 1009.2 |
| 20260506084513 | 24 | 193 | 0.0 | 6.4 | 0.00 | 0.00 | 0.00 | 100 | 1009.2 |
| 20260506083018 | 24 | 169 | 0.0 | 9.7 | 0.00 | 0.00 | 0.00 | 100 | 1009.3 |
| 20260506081530 | 24 | 169 | 0.0 | 1.6 | 0.00 | 0.00 | 0.00 | 100 | 1009.3 |
| 20260506073003 | 24 | 173 | 0.0 | 6.4 | 0.00 | 0.00 | 0.00 | 100 | 1009.0 |
| 20260506071509 | 24 | 174 | 0.0 | 6.4 | 0.00 | 0.00 | 0.00 | 100 | 1009.2 |
| 20260506061503 | 24 | 179 | 0.0 | 1.6 | 0.00 | 0.00 | 0.00 | 100 | 1009.3 |
| 20260506044505 | 25 | 186 | 0.0 | 0.0 | 0.00 | 0.00 | 0.00 | 100 | 1009.2 |
| 20260506043008 | 25 | 276 | 0.0 | 1.6 | 0.00 | 0.00 | 0.00 | 100 | 1008.7 |
| 20260506041515 | 25 | 217 | 0.0 | 6.4 | 0.00 | 0.00 | 0.00 | 100 | 1008.2 |
| 20260506040019 | 25 | 196 | 0.0 | 8.0 | 0.00 | 0.00 | 0.00 | 100 | 1008.1 |
| 20260506034505 | 25 | 167 | 0.0 | 0.0 | 0.00 | 0.00 | 0.00 | 100 | 1007.9 |
| 20260506033007 | 25 | 168 | 0.0 | 3.2 | 0.00 | 0.00 | 0.00 | 100 | 1008.0 |
| 20260506031512 | 25 | 169 | 0.0 | 6.4 | 0.00 | 0.00 | 0.00 | 100 | 1007.9 |
| 20260506030027 | 25 | 176 | 0.0 | 1.6 | 0.00 | 0.00 | 0.00 | 100 | 1007.9 |
| 20260506024536 | 25 | 177 | 0.0 | 6.4 | 0.00 | 0.00 | 0.00 | 100 | 1007.9 |
| 20260506023008 | 26 | 174 | 0.0 | 9.7 | 0.00 | 0.00 | 0.00 | 100 | 1007.6 |
| 20260506021511 | 26 | 174 | 0.0 | 11.3 | 0.00 | 0.00 | 0.00 | 100 | 1007.5 |
| 20260506020018 | 26 | 155 | 0.0 | 4.8 | 0.00 | 0.00 | 0.00 | 100 | 1007.4 |
| 20260506014521 | 26 | 153 | 0.0 | 1.6 | 0.00 | 0.00 | 0.00 | 100 | 1007.5 |
| 20260506013022 | 26 | 153 | 0.0 | 0.0 | 0.00 | 0.00 | 0.00 | 100 | 1007.2 |
| 20260506011510 | 26 | 153 | 0.0 | 0.0 | 0.00 | 0.00 | 0.00 | 100 | 1006.8 |
| 20260506010014 | 26 | 153 | 0.0 | 1.6 | 0.00 | 0.00 | 0.00 | 100 | 1006.5 |
| 20260506004518 | 26 | 153 | 0.0 | 1.6 | 0.00 | 0.00 | 0.00 | 100 | 1006.2 |
| 20260506003022 | 27 | 152 | 0.0 | 6.4 | 0.00 | 0.00 | 0.00 | 100 | 1006.1 |
| 20260506001532 | 27 | 150 | 0.0 | 3.2 | 0.00 | 0.00 | 0.00 | 3 | 1006.2 |
| 20260506000011 | 27 | 201 | 0.0 | 6.4 | 0.00 | 0.00 | 0.00 | 7 | 1006.3 |
| 20260505234527 | 27 | 226 | 0.0 | 0.0 | 0.00 | 0.00 | 0.00 | 17 | 1006.2 |
| 20260505233021 | 28 | 236 | 0.0 | 12.9 | 0.00 | 0.00 | 0.00 | 22 | 1006.0 |
| 20260505231526 | 28 | 160 | 0.0 | 11.3 | 0.00 | 0.00 | 0.00 | 29 | 1006.1 |
| 20260505230045 | 28 | 165 | 0.0 | 1.6 | 0.00 | 0.00 | 0.00 | 35 | 1006.1 |
| 20260505224516 | 28 | 167 | 0.0 | 12.9 | 0.00 | 0.00 | 0.00 | 41 | 1006.0 |
| 20260505223018 | 29 | 148 | 0.0 | 9.7 | 0.00 | 0.00 | 0.00 | 40 | 1006.0 |
| 20260505221522 | 29 | 172 | 1.6 | 27.4 | 0.00 | 0.00 | 0.00 | 44 | 1006.0 |
| 20260505220031 | 29 | 155 | 4.8 | 16.1 | 0.00 | 0.00 | 0.00 | 48 | 1006.2 |
| 20260505214526 | 30 | 271 | 0.0 | 17.7 | 0.00 | 0.00 | 0.00 | 50 | 1006.4 |
| 20260505213022 | 30 | 144 | 4.8 | 17.7 | 0.00 | 0.00 | 0.00 | 46 | 1006.5 |
| 20260505211520 | 29 | 141 | 3.2 | 14.5 | 0.00 | 0.00 | 0.00 | 42 | 1006.6 |
| 20260505210024 | 28 | 164 | 0.0 | 22.5 | 0.00 | 0.00 | 0.00 | 42 | 1006.6 |
| 20260505204527 | 28 | 167 | 4.8 | 24.1 | 0.00 | 0.00 | 0.00 | 44 | 1006.8 |
| 20260505203027 | 29 | 181 | 0.0 | 20.9 | 0.00 | 0.00 | 0.00 | 44 | 1006.9 |
| 20260505201518 | 28 | 165 | 6.4 | 27.4 | 0.00 | 0.00 | 0.00 | 45 | 1007.1 |
| 20260505200004 | 28 | 204 | 0.0 | 25.7 | 0.00 | 0.00 | 0.00 | 39 | 1007.1 |
| 20260505194504 | 28 | 170 | 6.4 | 27.4 | 0.00 | 0.00 | 0.00 | 35 | 1007.1 |
| 20260505193005 | 28 | 167 | 3.2 | 29.0 | 0.00 | 0.00 | 0.00 | 32 | 1007.2 |
| 20260505191508 | 27 | 144 | 6.4 | 24.1 | 0.00 | 0.00 | 0.00 | 32 | 1007.3 |
| 20260505190009 | 27 | 338 | 6.4 | 35.4 | 0.00 | 0.00 | 0.00 | 29 | 1007.4 |
| 20260505184508 | 27 | 203 | 6.4 | 22.5 | 0.00 | 0.00 | 0.00 | 15 | 1007.7 |
| 20260505183011 | 27 | 195 | 3.2 | 22.5 | 0.00 | 0.00 | 0.00 | 17 | 1007.7 |
| 20260505181508 | 27 | 194 | 6.4 | 14.5 | 0.00 | 0.00 | 0.00 | 12 | 1007.9 |
| 20260505180017 | 26 | 191 | 1.6 | 24.1 | 0.00 | 0.00 | 0.00 | 5 | 1008.1 |
| 20260505174508 | 26 | 219 | 0.0 | 19.3 | 0.00 | 0.00 | 0.00 | 100 | 1008.5 |
| 20260505173010 | 26 | 191 | 4.8 | 19.3 | 0.00 | 0.00 | 0.00 | 100 | 1008.6 |
| 20260505171511 | 26 | 181 | 6.4 | 24.1 | 0.00 | 0.00 | 0.00 | 100 | 1008.6 |
| 20260505170010 | 25 | 255 | 3.2 | 17.7 | 0.00 | 0.00 | 0.00 | 100 | 1008.8 |
| 20260505164508 | 25 | 168 | 6.4 | 19.3 | 0.00 | 0.00 | 0.00 | 100 | 1008.7 |
| 20260505163010 | 25 | 262 | 3.2 | 17.7 | 0.00 | 0.00 | 0.00 | 100 | 1008.7 |
| 20260505161511 | 25 | 191 | 1.6 | 12.9 | 0.00 | 0.00 | 0.00 | 100 | 1008.5 |
| 20260505153014 | 23 | 128 | 4.8 | 22.5 | 0.00 | 0.00 | 0.00 | 100 | 1008.7 |
| 20260505151515 | 23 | 167 | 3.2 | 17.7 | 0.00 | 0.00 | 0.00 | 100 | 1009.0 |
| 20260505124516 | 21 | 193 | 0.0 | 8.0 | 0.00 | 0.00 | 0.00 | 100 | 1008.6 |
| 20260505123029 | 21 | 172 | 1.6 | 14.5 | 0.00 | 0.00 | 0.00 | 100 | 1008.2 |
| 20260505121520 | 21 | 171 | 0.0 | 12.9 | 0.00 | 0.00 | 0.00 | 100 | 1008.2 |
| 20260505120024 | 21 | 162 | 0.0 | 8.0 | 0.00 | 0.00 | 0.00 | 100 | 1007.9 |
| 20260505114520 | 21 | 174 | 0.0 | 11.3 | 0.00 | 0.00 | 0.00 | 100 | 1007.7 |
| 20260505113018 | 21 | 165 | 0.0 | 12.9 | 0.00 | 0.00 | 0.00 | 100 | 1007.8 |
| 20260505111522 | 21 | 160 | 0.0 | 9.7 | 0.00 | 0.00 | 0.00 | 100 | 1007.8 |